Regional Weather Roundup
Issued by NWS Grand Forks, ND

Home | Current Version | Previous Version | Graphics & Text | Print | Product List | Glossary On
Versions: 1 2 3 4 5 6 7 8 9 10 11 12 13 14 15 16 17 18 19 20 21 22 23 24 25 26 27 28 29 30 31 32 33 34 35 36 37 38 39 40 41 42 43 44 45 46 47 48 49 50
000
ASUS43 KFGF 241910
RWRFGF
PRAIRIE TO PINES  WEATHER ROUNDUP
NATIONAL WEATHER SERVICE EASTERN NORTH DAKOTA/GRAND FORKS ND
100 PM CST FRI NOV 24 2017

 **SATELLITE DATA USED TO AUGMENT SKY COVER AT AUTOMATED STATIONS**
 *****  WEATHER ACROSS EASTERN NORTH DAKOTA  *****

CITY           SKY/WX    TMP DP  RH WIND       PRES   REMARKS
GRAND FORKS    FAIR      45  38  76 NW17G25   29.46R
GRAND FRKS AFB FAIR      45  36  71 NW20G28   29.48R
GRAND FRKS NWS   N/A     45 N/A N/A NW13        N/A
DEVILS LAKE    FAIR      44  36  73 W22       29.53R
FARGO          FAIR      50  41  71 NW23G31   29.48R
WAHPETON ARPT  NOT AVBL
$$

 ***** WEATHER ACROSS CENTRAL AND WESTERN NORTH DAKOTA  *****

CITY           SKY/WX    TMP DP  RH WIND       PRES   REMARKS
BISMARCK       FAIR      54  38  54 NW17G31   29.65S
MINOT          FAIR      50  36  58 W24       29.59R
JAMESTOWN      FAIR      49  37  63 NW26G33   29.55R
MINOT AFB      FAIR      49  35  58 NW23G29   29.57R
GARRISON         N/A     48  38  68 NW24G35   29.63R
WILLISTON      FAIR      50  34  54 W21       29.70S
DICKINSON      FAIR      49  36  61 W22       29.70R
HETTINGER      FAIR      50  35  56 NW25G35   29.76R
$$

 *****  OTHER AIRPORT OBSERVATIONS IN OUR AREA  *****

CITY           SKY/WX    TMP DP  RH WIND       PRES   REMARKS
WALHALLA       FAIR      45  36  70 NW21G28   29.45R
GRAFTON AIRPOR FAIR      41  36  81 NW21G29   29.47R
VALLEY CITY AR FAIR      48  41  76 NW25      29.54R
CANDO          FAIR      45  36  70 W16G23    29.54R
CAVALIER APRT  FAIR      43  34  70 NW14      29.44R
GWINNER          N/A     50  41  71 NW23G35   29.54R
SHEYENNE NWR     N/A     49  42  78 NW15      29.95S
ROLLA          FAIR      45  30  57 NW24G32   29.50S
 ***** THE ABOVE OBSERVATIONS ARE NON NWS ARE NOT QUALITY
       CONTROLLED AND MAY MIS-REPORT RAIN FOR SNOW...
$$

  *****  WEATHER ACROSS NORTHERN MINNESOTA  *****

CITY           SKY/WX    TMP DP  RH WIND       PRES   REMARKS
FLAG ISLAND    CLOUDY    37  30  75 NW14      29.32R
WARROAD        FAIR      43  36  75 W15       29.36R
ROSEAU         FAIR      43  37  81 NW12G17   29.37R
HALLOCK        FAIR      39  36  87 NW16      29.43R
THF RVR FALLS  FAIR      42  35  76 NW17G29   29.43R
BAUDETTE       FAIR      40  34  79 NW14      29.33R
WASKISH        FAIR      37  36  93 SW9       29.35R
CROOKSTON      FAIR      45  37  76 NW24G30   29.45R
STEPHEN NDAWN    N/A     39  34  81 NW9         N/A
GREENBUSH NDAW   N/A     41  36  81 NW16        N/A
$$
  *****  WEATHER ACROSS CENTRAL AND WEST MINNESOTA  *****

CITY           SKY/WX    TMP DP  RH WIND       PRES   REMARKS
FOSSTON        FAIR      43  37  81 W14       29.43R
BEMIDJI        FAIR      41  38  89 W12       29.37R
PARK RAPIDS    CLOUDY    43  39  86 NW9       29.37R
ELBOW LAKE     MOCLDY    42  40  93 W10       29.46R
WADENA         PTSUNNY   43  39  87 W8        29.40S
DETROIT LAKES  FAIR      41  39  93 NW18G24   29.45R
MOORHEAD       FAIR      48  41  76 NW21      29.48R
FERGUS FALLS   FAIR      43  43 100 NW14G21   29.48R
MORRIS MN      PTSUNNY   46  43  87 NW24G30   29.46R
STAPLES        CLOUDY    43  39  87 NW13      29.39R
$$
  *****  WEATHER ELSEWHERE ACROSS MINNESOTA  *****

CITY           SKY/WX    TMP DP  RH WIND       PRES   REMARKS
DULUTH         LGT RAIN  41  40  96 W13       29.28R
INTRNTL FALLS  FAIR      40  32  73 W13       29.30R
ELY            LGT RAIN  39  37  93 W9        29.27R
CLOQUET        LGT RAIN  43  39  87 W10       29.31R
WHEATON        FAIR      48  41  76 NW15      29.49F
BRAINERD       CLOUDY    47  42  83 NW14      29.37R
HIBBING        LGT RAIN  39  37  92 NW10      29.30R
ALEXANDRIA     CLOUDY    45  42  89 NW12      29.44R
SAINT CLOUD    CLOUDY    53  45  74 W16G22    29.36F
MINNEAPOLIS    PTSUNNY   60  41  49 NW12      29.39R
$$

  *****  WEATHER ACROSS SOUTH DAKOTA  *****

CITY           SKY/WX    TMP DP  RH WIND       PRES   REMARKS
SIOUX FALLS    PTSUNNY   62  39  42 NW29G47   29.52F
BROOKINGS      NOT AVBL
WATERTOWN      CLOUDY    50  43  77 NW21G35   29.51R
HURON          FAIR      55  41  59 NW30G40   29.59R
SISSETON         N/A     51  43  74 NW22G28   29.50R
ABERDEEN       FAIR      55  38  52 NW25G33   29.59R
MITCHELL       FAIR      59  40  49 NW36G43   29.60R
PIERRE         FAIR      56  38  50 NW30G39   29.70R
MOBRIDGE       FAIR      55  36  48 NW20G29   29.66R
RAPID CITY     FAIR      54  27  35 NW31G43   29.82R
$$

  *****  SOME WEATHER IN NEARBY STATES *****

CITY           SKY/WX    TMP DP  RH WIND       PRES   REMARKS
GLASGOW MT     FAIR      47  35  63 W18       29.78R
GREAT FALLS MT FAIR      46  20  35 SW29G35   29.87R
CHEYENNE WY    FAIR      61  29  29 NW25G37   29.90R
SCOTTSBLUFF NE FAIR      59  34  39 NW22G32   29.88S
OMAHA NE       FAIR      72  41  32 NW26G32   29.50R
DES MOINES IA  FAIR      69  40  34 SW21      29.43F
DAVENPORT IA   FAIR      66  37  34 S22G32    29.46F
CHICAGO IL     FAIR      60  37  42 S20G25    29.54F
EAU CLAIRE WI  FAIR      58  38  47 W10       29.32S
LA CROSSE WI   FAIR      64  40  41 S18G25    29.32F
$$

  *****  SOME NATIONAL WEATHER *****

CITY           SKY/WX    TMP DP  RH WIND       PRES   REMARKS
LA GUARDIA NY  FAIR      51  22  31 SW8       29.98F
RALEIGH NC     FAIR      55  24  30 VRB5      29.99F
ATLANTA GA     FAIR      60  43  53 CALM      29.96F
NEW ORLEANS LA FAIR      63  30  28 N5        30.01F
OKLAHOMA CITY  FAIR      77  35  21 S18       29.74F
ALBUQUERQUE NM FAIR      60  28  29 S3        30.08F
SALT LAKE CITY PTSUNNY   62  38  40 N16       30.06S
LOS ANGELES CA PTSUNNY   81  43  26 SE7       29.92F
BOISE ID       FAIR      50  34  54 NW9       30.12S
SEATTLE WA     CLOUDY    51  40  65 S14       30.09S
$$

*** WEATHER ACROSS MANITOBA...SASKATCHEWAN AND ONTARIO ***
                ***ONTARIO***

CITY           SKY/WX    TMP DP  RH WIND       PRES   REMARKS
GERALDTON      CLOUDY    36  34  93 W6        29.11R
THUNDER BAY    CLOUDY    41  37  87 W3        29.17F
SIOUX LOOKOUT  CLOUDY    32  30  93 NW12      29.22R WCI  23
TORONTO        PTSUNNY   52  34  50 SW23G33   29.69F
BIG TROUT LK   LGT SNOW  12  10  92 NW6       29.14R WCI   3
PICKLE LAKE    FLURRIES  25  23  93 W12G20    29.13R WCI  14
DRYDEN         CLOUDY    34  30  86 W17       29.25R WCI  23
KENORA         CLOUDY    36  30  80 NW13G18   29.30S
$$
                *** MANITOBA***

CITY           SKY/WX    TMP DP  RH WIND       PRES   REMARKS
BRANDON        MOSUNNY   37  32  81 W20G30    29.48R
DAUPHIN        CLOUDY    30  27  86 NE18      29.46R WCI  18
ISLAND LAKE    FLURRIES  10   5  79 NW16      29.30R WCI  -7
PILOT MOUND      N/A     41  32  70 W15G23      N/A
THE PAS        FLURRIES  12   3  67 NW18G28   29.55R WCI  -5
THOMPSON       PTSUNNY    5  -2  72 NW12G17   29.47R WCI -11
WINNIPEG       MOSUNNY   37  32  81 W9        29.40R
LYNN LAKE      SUNNY      1  -2  85 NW7       29.53R WCI -11
CHURCHILL      FLURRIES   3   1  92 W14       29.45R WCI -15
GILLAM         PTSUNNY   -2  -8  78 N10       29.40R WCI -19
$$
                ***SASKATCHEWAN***

CITY           SKY/WX    TMP DP  RH WIND       PRES   REMARKS
ESTEVAN        PTSUNNY   45  32  61 NW29G38   29.61R
KINDERSLEY     CLOUDY    34  28  80 W9        29.67R
LLOYDMINSTER   MOSUNNY   37  30  75 W16       29.60R
PRINCE ALBERT  MOSUNNY   21  10  63 N8        29.64R WCI  12
REGINA         MOSUNNY   37  32  81 W15       29.64R
YORKTON        PTSUNNY   36  28  75 NW21G30   29.52R
N. BATTLEFORD  MOSUNNY   36  28  75 W13       29.63R
LA RONGE       FLURRIES  12   5  73 NW13G20   29.64R WCI  -3
SASKATOON      PTSUNNY   36  30  80 W10       29.63R
SWIFT CURRENT  MOSUNNY   39  32  75 W18G28    29.68F
$$
NOTE: THESE ARE AUTOMATED STATIONS WITH LIMITED QUALITY CONTROL
      "FAIR" INDICATES FEW OR NO CLOUDS BELOW 12,000 FEET WITH NO
      SIGNIFICANT WEATHER AND/OR OBSTRUCTIONS TO VISIBILITY.
      SKY/WX - SKY CONDITION AND SIGNIFICANT WEATHER.
      TMP - AIR TEMPERATURE.    DP   - DEWPOINT TEMPERATURE.
      RH  - RELATIVE HUMIDITY.  PRES - PRESSURE.
      HX  - HEAT INDEX.         WCI  - WIND CHILL INDEX.
$




USA.gov is the U.S. government's official web portal to all federal, state and local government web resources and services.